This is the latest recevied weather packets stored in our database for station/object SV1TQE-1. If no packets are shown the sender has not sent any weather packets the latest 10 day(s).
| Time | Temp. | Humidity | Pressure | Rain* | Wind** | Luminosity | Snow |
|---|---|---|---|---|---|---|---|
| 1787433464 | 29.44° C | 83% | 1016.1 hPa | - | - | - | - |
| 1787432564 | 29.44° C | 81% | 1016.2 hPa | - | - | - | - |
| 1787431664 | 29.44° C | 85% | 1016.1 hPa | - | - | - | - |
| 1787430763 | 29.44° C | 86% | 1016.1 hPa | - | - | - | - |
| 1787429863 | 30° C | 76% | 1016.2 hPa | - | - | - | - |
| 1787428966 | 30° C | 74% | 1016.1 hPa | - | - | - | - |
| 1787428056 | 30° C | 73% | 1016 hPa | - | - | - | - |
| 1787427156 | 30° C | 75% | 1016.2 hPa | - | - | - | - |
| 1787426255 | 30° C | 78% | 1016.2 hPa | - | - | - | - |
| 1787425355 | 30° C | 82% | 1016.2 hPa | - | - | - | - |
| 1787424455 | 30° C | 84% | 1016 hPa | - | - | - | - |
| 1787423555 | 30° C | 86% | 1016 hPa | - | - | - | - |
| 1787422655 | 30° C | 85% | 1015.9 hPa | - | - | - | - |
| 1787421755 | 30° C | 84% | 1015.8 hPa | - | - | - | - |
| 1787420856 | 30° C | 86% | 1015.6 hPa | - | - | - | - |
| 1787419955 | 30° C | 93% | 1015.6 hPa | - | - | - | - |
| 1787419054 | 30° C | 98% | 1015.6 hPa | - | - | - | - |
| 1787418154 | 30° C | 95% | 1015.5 hPa | - | - | - | - |
| 1787417254 | 30.56° C | 95% | 1015.4 hPa | - | - | - | - |
| 1787416354 | 31.11° C | 90% | 1015.3 hPa | - | - | - | - |
| 1787415453 | 31.11° C | 88% | 1015.3 hPa | - | - | - | - |
| 1787414553 | 32.22° C | 79% | 1015.4 hPa | - | - | - | - |
| 1787413653 | 32.22° C | 62% | 1015.3 hPa | - | - | - | - |
| 1787412753 | 33.89° C | 59% | 1015.4 hPa | - | - | - | - |
| 1787411853 | 34.44° C | 59% | 1015.2 hPa | - | - | - | - |
* Rain since midnight (hover to see other rain measurements)
** Current wind speed in m/s (hover to see current wind gust speed)